Home   Weather   Italy   Venice   Past weeks
Flag for Italy

Past Weather in Venice, Italy — December 2020

Currently: 41 °F. Fog. (Weather station: Venice / Tessera, Italy). See more current weather

December 2020 Weather in Venice — Graph

°F

High & Low Weather Summary for December 2020

 TemperatureHumidityPressure
High59 °F (Dec 5, 5:50 pm)100% (Dec 2, 10:20 am)30.36 "Hg (Dec 2, 10:20 am)
Low30 °F (Dec 1, 7:50 am)45% (Dec 27, 12:20 pm)29.03 "Hg (Dec 28, 1:20 pm)
Average43 °F87%29.87 "Hg
* Reported Dec 1 12:20 am — Dec 31 11:50 pm, Venice. Weather by CustomWeather, © 2022

Note: Actual official high and low records may vary slightly from our data, if they occured in-between our weather recording intervals... More about our weather records

Venice Weather History for December 1, 2020

Scroll right to see more
 ConditionsComfort  
Time TempWeatherWind HumidityBarometerVisibility
12:20 am
Tue, Dec 1
34 °FClear.8 mph75%30.18 "Hg10 mi
12:50 am34 °FClear.7 mph75%30.18 "Hg10 mi
1:20 am34 °FClear.8 mph75%30.18 "Hg10 mi
1:50 am34 °FClear.7 mph70%30.18 "Hg10 mi
2:20 am34 °FClear.8 mph70%30.15 "Hg10 mi
2:50 am32 °FClear.7 mph75%30.15 "Hg10 mi
3:20 am32 °FClear.8 mph75%30.15 "Hg10 mi
3:50 am34 °FClear.8 mph70%30.12 "Hg10 mi
4:20 am32 °FClear.6 mph75%30.12 "Hg10 mi
4:50 am32 °FClear.6 mph75%30.12 "Hg10 mi
5:20 am32 °FClear.6 mph75%30.09 "Hg10 mi
5:50 am32 °FClear.5 mph75%30.09 "Hg10 mi
6:20 am32 °FClear.7 mph80%30.09 "Hg10 mi
6:50 am32 °FClear.8 mph80%30.09 "Hg10 mi
7:20 am32 °FClear.7 mph80%30.09 "Hg10 mi
7:50 am30 °FSunny.9 mph86%30.07 "Hg10 mi
8:20 am32 °FSunny.5 mph80%30.09 "Hg10 mi
8:50 am32 °FPassing clouds.5 mph80%30.09 "HgN/A
9:20 am34 °FSunny.6 mph75%30.09 "Hg10 mi
10:20 am37 °FScattered clouds.8 mph70%30.07 "HgN/A
10:50 am37 °FPartly sunny.9 mph70%30.07 "HgN/A
11:20 am39 °FPartly sunny.8 mph65%30.04 "HgN/A
11:50 am39 °FPartly sunny.6 mph65%30.04 "HgN/A
12:20 pm41 °FScattered clouds.6 mph66%30.04 "HgN/A
12:50 pm43 °FPassing clouds.7 mph57%30.01 "HgN/A
1:20 pm45 °FPassing clouds.9 mph53%30.01 "HgN/A
1:50 pm45 °FPassing clouds.9 mph57%29.98 "HgN/A
2:20 pm43 °FPassing clouds.8 mph61%29.98 "HgN/A
2:50 pm43 °FScattered clouds.9 mph61%29.98 "HgN/A
3:20 pm43 °FScattered clouds.9 mph57%29.98 "HgN/A
3:50 pm43 °FBroken clouds.9 mph57%29.95 "HgN/A
4:20 pm43 °FPartly sunny.8 mph57%29.95 "HgN/A
4:50 pm43 °FPartly cloudy.8 mph57%29.95 "HgN/A
5:20 pm43 °FPassing clouds.8 mph57%29.95 "HgN/A
5:50 pm43 °FPassing clouds.9 mph61%29.95 "HgN/A
6:20 pm43 °FPartly cloudy.10 mph61%29.95 "HgN/A
7:20 pm41 °FPassing clouds.13 mph66%29.98 "HgN/A
7:50 pm41 °FPassing clouds.13 mph66%29.98 "HgN/A
8:50 pm39 °FPassing clouds.13 mph65%29.98 "HgN/A
9:20 pm39 °FPassing clouds.13 mph65%29.98 "HgN/A
9:50 pm39 °FPartly cloudy.13 mph65%29.98 "HgN/A
10:20 pm39 °FPartly cloudy.14 mph65%29.98 "HgN/A
10:50 pm39 °FPassing clouds.15 mph65%29.98 "HgN/A
11:20 pm39 °FPassing clouds.15 mph70%29.98 "HgN/A
11:50 pm37 °FLight rain. Passing clouds.16 mph75%29.98 "HgN/A
Weather by CustomWeather, © 2022

See weather overview